Location: Anne Acres
(38.7004°N, 75.0827°W)
Time: 00:27:09
(UTC+00:00)

Transit 2A - Visible Passes

Search period start: 05 November 2024 00:00
Search period end: 15 November 2024 00:00
Orbit: 591 x 959 km, 66.7° (Epoch: 04 November)

Date Brightness Start Highest point End Pass type
(mag) Time Alt. Az. Time Alt. Az. Time Alt. Az.
05 Nov 8.5 09:56:52 10° SSE 10:02:07 29° ESE 10:07:28 10° NE visible
06 Nov 9.0 09:22:29 10° SSE 09:26:48 20° ESE 09:31:11 10° ENE visible
06 Nov 6.5 11:03:08 10° SW 11:09:22 68° WNW 11:15:41 10° NNE visible
07 Nov 9.3 08:48:57 10° SE 08:51:32 13° E 08:54:08 10° ENE visible
07 Nov 6.5 10:27:30 10° SSW 10:33:46 85° ESE 10:40:09 10° NNE visible
08 Nov 7.0 09:52:07 10° SSW 09:58:14 60° ESE 10:04:28 10° NE visible
09 Nov 7.7 09:17:01 10° S 09:22:47 41° ESE 09:28:39 10° NE visible
09 Nov 7.0 11:00:14 10° WSW 11:06:00 36° NW 11:11:46 10° NNE visible
10 Nov 8.2 08:42:13 10° SSE 08:47:23 28° ESE 08:52:38 10° NE visible
10 Nov 6.6 10:24:09 10° SW 10:30:15 51° WNW 10:36:23 10° NNE visible
11 Nov 8.7 08:08:53 13° SE 08:12:03 19° ESE 08:16:15 10° ENE visible
11 Nov 6.3 09:49:27 16° SW 09:54:34 72° WNW 10:00:54 10° NNE visible
12 Nov 9.1 07:36:27 12° ESE 07:36:46 12° E 07:38:57 10° E visible
12 Nov 6.4 09:16:58 46° SSW 09:18:58 81° ESE 09:25:19 10° NNE visible
12 Nov 7.7 10:58:14 10° W 11:02:50 21° NW 11:07:25 10° N visible
13 Nov 7.0 08:43:53 55° E 08:43:53 55° E 08:49:36 10° NE visible
13 Nov 7.3 10:24:22 21° W 10:26:56 28° NW 10:32:14 10° N visible
14 Nov 8.2 08:10:28 28° ENE 08:10:28 28° ENE 08:13:44 10° NE visible
14 Nov 6.9 09:50:55 38° WNW 09:51:06 38° NW 09:56:55 10° NNE visible
